Weather in Yuchi

Taiwan     23°53′45″N   120°56′08″E
temp.,
°C
wind,
m/s
gust,
m/s
humid.,
%
clouds,
%
prec.,
mm/h
press.,
hPa
HPBL,
m
25 october, mon
mon2523:00+16e22926 0.0 101830
02:00+16e229116 0.0 101729
05:00+16e21890 0.0 101627
08:00+21ssw01710 0.0 1017231
11:00+24w22616 0.0 1016983
14:00+24w226134 0.1 10131230
17:00+21wsw118251 0.1 101417
20:00+18ese22837 0.1 101754
26 october, tue
tue2623:00+16e22810 0.0 101748
02:00+16e22800 0.0 101641
05:00+16e22800 0.0 101733
08:00+21w00610 0.0 1017309
11:00+24w22550 0.0 1017983
14:00+24w226362 0.1 10151284
17:00+20w118833 0.4 101629
20:00+18ese119222 0.5 101817
27 october, wed
wed2723:00+17e219021 0.0 101825
02:00+17e118546 0.0 101722
05:00+17e11875 0.0 101720
08:00+21w11700 0.0 1018385
11:00+23w226444 0.0 10161146
14:00+22w227365 0.1 1015644
17:00+19ssw018548 0.1 101668
20:00+18e118555 0.2 101728
28 october, thu
thu2823:00+17e117980 0.1 101836
02:00+17e118174 0.1 101822
05:00+16e118246 0.1 101829
08:00+19w006922 0.1 1019334
11:00+23w225943 0.0 10181247
14:00+21w127073 0.3 1017902
17:00+19sse017914 0.2 101716
20:00+16e22850 0.2 101936
29 october, fri
fri2923:00+15e22810 0.0 101929
02:00+14e22820 0.0 101927
05:00+14e22832 0.0 101929
08:00+19w01620 0.0 1020345
11:00+22w22582 0.0 10191016
14:00+22w225738 0.0 10171279
17:00+18wsw117536 0.0 101817
20:00+15e21835 0.0 102023